Weather History for Brooksville, FL

Change the Weather History Date:

Thursday, December 6, 2012

  Actual Average Record
Temperature  
Mean Temperature 70 °F -  
Max Temperature 80 °F 71 °F 84 °F (2013)
Min Temperature 60 °F 47 °F 27 °F (2000)
Cooling Degree Days 5    
Growing Degree Days 20 (Base 50)    
Moisture  
Dew Point 60 °F    
Average Humidity 79    
Maximum Humidity 100    
Minimum Humidity 47    
Precipitation  
Precipitation 0.00 in - - ()
Sea Level Pressure  
Sea Level Pressure 30.02 in    
Wind  
Wind Speed 4 mph (ENE)    
Max Wind Speed 9 mph    
Max Gust Speed -    
Visibility 10 miles    
Events      
Averages and records for this station are not official NWS values.
T = Trace of Precipitation, MM = Missing Value Source: NWS Daily Summary

Daily Weather History Graph

Daily Weather History Graph

Search for Another Location

Airport:

Trip Planner

Search our weather history database for the weather conditions in past years. The results will help you decide how hot, cold, wet, or windy it might be!

Date:

Astronomy

Dec. 06, 2012 Rise Set
Actual Time 7:08 AM EST 5:33 PM EST
Civil Twilight 6:43 AM EST 5:58 PM EST
Nautical Twilight 6:13 AM EST 6:28 PM EST
Astronomical Twilight 5:45 AM EST 6:56 PM EST
Moon No Moon Rise 12:28 PM EST (12/6)
Length of Visible Light 11h 15m
Length of Day
10h 24m
Waning Gibbous, 49% of the Moon is Illuminated
Dec 6
Waning Gibbous
Dec 13
New
Dec 20
First Quarter
Dec 28
Full
Jan 4
Last Quarter

Hourly Weather History & Observations

Time (EST) Temp. Heat Index Dew Point Humidity Pressure Visibility Wind Dir Wind Speed Gust Speed Precip Events Conditions
12:53 AM 63.0 °F - 60.1 °F 90% 30.07 in 10.0 mi Calm Calm - N/A   Clear
1:53 AM 61.0 °F - 60.1 °F 97% 30.06 in 10.0 mi ENE 4.6 mph - N/A   Clear
2:42 AM 62.6 °F - 60.8 °F 94% 30.06 in 10.0 mi ENE 4.6 mph - N/A   Scattered Clouds
2:53 AM 61.0 °F - 60.1 °F 97% 30.05 in 10.0 mi ENE 4.6 mph - N/A   Mostly Cloudy
3:53 AM 61.0 °F - 60.1 °F 97% 30.03 in 10.0 mi NE 4.6 mph - N/A   Partly Cloudy
4:41 AM 60.8 °F - 60.8 °F 100% 30.03 in 10.0 mi ENE 6.9 mph - N/A   Mostly Cloudy
4:53 AM 61.0 °F - 60.1 °F 97% 30.02 in 10.0 mi ENE 6.9 mph - N/A   Overcast
5:53 AM 61.0 °F - 60.1 °F 97% 30.03 in 10.0 mi ENE 3.5 mph - N/A   Overcast
6:53 AM 62.1 °F - 60.1 °F 93% 30.04 in 10.0 mi Calm Calm - N/A   Overcast
7:53 AM 62.1 °F - 61.0 °F 96% 30.06 in 10.0 mi NNE 4.6 mph - N/A   Overcast
8:53 AM 64.9 °F - 61.0 °F 87% 30.07 in 10.0 mi ENE 4.6 mph - N/A   Mostly Cloudy
9:53 AM 69.1 °F - 61.0 °F 75% 30.08 in 10.0 mi Calm Calm - N/A   Overcast
10:53 AM 72.0 °F - 62.1 °F 71% 30.07 in 10.0 mi ENE 5.8 mph - N/A   Partly Cloudy
11:53 AM 75.0 °F - 61.0 °F 62% 30.04 in 10.0 mi East 5.8 mph - N/A   Partly Cloudy
12:53 PM 79.0 °F - 60.1 °F 52% 30.00 in 10.0 mi Calm Calm - N/A   Mostly Cloudy
1:53 PM 79.0 °F - 59.0 °F 50% 29.97 in 10.0 mi ENE 4.6 mph - N/A   Partly Cloudy
2:53 PM 78.1 °F - 59.0 °F 52% 29.96 in 10.0 mi ENE 5.8 mph - N/A   Partly Cloudy
3:53 PM 80.1 °F 80.6 °F 57.9 °F 47% 29.95 in 10.0 mi ENE 9.2 mph - N/A   Scattered Clouds
4:53 PM 78.1 °F - 59.0 °F 52% 29.96 in 10.0 mi East 4.6 mph - N/A   Clear
5:53 PM 72.0 °F - 57.9 °F 61% 29.98 in 10.0 mi Calm Calm - N/A   Partly Cloudy
6:53 PM 72.0 °F - 59.0 °F 64% 29.98 in 10.0 mi NE 5.8 mph - N/A   Overcast
7:53 PM 69.1 °F - 59.0 °F 70% 30.00 in 10.0 mi NE 5.8 mph - N/A   Clear
9:53 PM 64.9 °F - 61.0 °F 87% 30.01 in 10.0 mi ENE 6.9 mph - N/A   Clear
10:53 PM 64.9 °F - 61.0 °F 87% 30.01 in 10.0 mi NE 4.6 mph - N/A   Clear
11:53 PM 62.1 °F - 61.0 °F 96% 29.99 in 10.0 mi Calm Calm - N/A   Clear